Temperature
21 20 20 20 20 19 19 19 19 18 18 18 18 18 18 18 17 17 17 17 17 17 17 17 17 17 17 17 17 17 17 17 17 17 17 17 17 17 17 17 17 17 17
20 20 20 20 20 20 19 19 19 19 19 18 18 18 18 18 18 17 17 17 17 17 17 17 17 17 17 17 17 17 17 17 17 17 17 17 17 17 17 17 17 17 17
21 21 20 20 20 20 20 19 19 19 19 18 18 18 18 18 18 18 17 17 17 17 17 17 17 17 17 17 17 17 17 17 17 17 17 17 17 17 17 17 17 17 17
21 21 21 20 20 20 20 19 19 19 19 18 18 18 18 18 18 18 18 18 17 17 17 17 17 17 17 17 17 17 17 17 17 17 17 17 16 16 17 17 17 17 17
21 21 21 21 20 20 20 20 19 19 19 19 19 18 18 18 18 18 18 18 17 17 17 17 17 17 17 17 17 17 17 17 17 17 17 17 16 16 16 16 17 17 17
21 21 21 21 20 20 20 19 19 19 19 19 19 18 18 18 18 18 18 18 18 17 17 17 17 17 17 17 17 17 17 17 17 17 17 17 17 17 16 16 16 17 17
21 21 21 21 20 20 20 19 19 19 19 19 19 18 18 18 18 18 18 18 18 17 17 17 17 17 17 17 17 17 17 17 17 17 17 17 16 16 16 16 16 16 16
21 21 21 21 21 20 20 20 19 19 19 19 19 19 18 18 18 18 18 18 18 18 18 17 17 17 17 17 17 17 17 17 17 17 17 16 16 16 16 16 16 16 16
20 20 21 21 21 21 20 20 20 19 19 19 19 19 18 18 18 18 18 18 18 18 18 17 17 17 17 17 17 17 17 17 17 16 16 16 16 16 16 16 16 16 15
20 20 20 21 21 21 20 20 20 19 19 19 19 19 19 19 18 18 18 18 18 17 17 17 17 17 17 17 17 17 17 16 16 16 16 16 16 16 16 16 16 16 16
21 21 20 20 21 21 21 20 20 19 19 19 19 19 19 18 18 18 18 18 18 17 17 17 17 17 17 17 17 16 16 16 16 16 16 16 16 16 16 16 16 16 15
21 21 20 20 20 20 20 20 20 19 19 19 19 19 19 18 18 18 18 18 18 17 17 17 17 17 17 17 17 17 16 16 16 16 16 16 16 16 16 16 16 16 15
20 20 20 20 20 20 20 20 19 19 19 19 19 19 18 18 18 18 18 18 17 17 17 17 17 17 17 17 17 17 17 16 16 16 16 16 16 16 16 16 15 15 15
20 20 20 20 20 20 20 20 19 19 19 19 19 19 18 18 18 18 18 18 17 17 17 17 17 17 17 17 17 16 16 16 16 16 16 16 16 16 15 15 15 15 15
19 19 19 20 20 19 19 20 19 19 19 19 19 18 18 18 18 18 18 17 17 17 17 17 17 17 17 17 16 16 16 16 16 16 16 16 16 15 15 15 15 15 15
19 19 19 19 19 19 19 19 19 19 19 19 19 18 18 18 17 17 17 17 17 17 17 17 17 17 17 16 16 16 16 16 16 16 16 16 15 15 15 15 15 15 15
18 19 19 19 19 19 19 19 19 18 18 18 18 18 18 17 17 17 17 17 17 17 16 16 16 16 16 16 16 16 15 16 15 15 15 15 15 15 15 15 15 15 15
18 19 19 19 19 19 18 18 18 18 18 18 17 17 17 17 17 17 17 16 16 16 16 16 16 16 16 16 15 15 15 15 15 15 15 15 15 15 15 15 15 15 14
19 18 18 18 18 18 18 18 18 18 17 17 17 17 17 17 17 16 16 16 16 16 16 16 16 15 15 15 15 15 15 15 15 14 14 14 14 14 14 14 14 14 14
18 18 18 18 18 18 18 17 17 17 17 17 17 17 17 16 16 16 16 15 15 15 15 15 15 15 15 15 15 15 14 14 14 14 14 14 14 14 14 14 14 14 14
17 17 17 17 17 17 17 17 16 16 16 16 16 16 16 16 16 15 15 15 15 15 15 14 14 14 14 15 14 14 14 14 14 14 14 14 14 14 14 14 14 14 14
17 17 17 17 17 17 16 16 16 16 16 16 16 16 15 15 15 15 15 15 14 14 14 14 14 14 14 14 14 14 13 13 13 13 13 13 13 13 13 13 13 13 13
16 16 16 16 16 16 16 16 16 16 16 15 15 15 15 15 15 14 14 14 14 14 14 13 13 13 13 13 13 13 13 13 13 13 13 13 13 13 13 13 13 13 12
16 16 15 15 15 15 15 15 15 15 15 15 15 15 14 14 14 14 14 14 14 13 13 13 13 13 13 12 12 12 12 13 12 12 12 12 12 12 12 12 12 12 12
15 15 15 15 15 15 15 15 15 15 15 15 14 14 14 14 14 13 13 13 13 13 13 13 12 12 12 12 12 12 12 12 12 12 12 12 12 12 12 12 12 11 11
15 15 15 15 14 14 14 14 15 15 15 14 14 14 14 13 13 13 13 13 13 12 12 12 12 12 11 11 11 11 11 11 11 11 11 11 11 11 11 11 11 11 11
Wind_Speed
7 6 6 6 5 4 5 5 4 3 3 2 2 2 1 1 1 1 3 3 4 4 4 3 3 3 3 3 3 3 4 2 2 2 1 2 1 1 1 1 2 3 4
6 6 6 6 7 7 6 5 5 4 4 3 2 2 2 2 1 1 2 2 3 4 4 4 3 3 3 3 3 3 3 2 2 2 1 1 2 1 1 1 2 2 3
9 8 7 7 7 7 7 7 6 5 4 4 3 3 3 2 2 2 1 1 2 3 3 3 3 3 3 3 3 3 3 2 1 1 2 2 1 1 1 0 1 2 2
8 8 8 8 9 9 7 6 6 5 4 5 4 5 4 3 2 1 1 1 2 3 3 3 3 3 3 3 3 3 2 3 2 1 1 1 2 1 1 1 1 1 2
9 9 9 9 8 8 7 7 6 6 5 5 5 5 4 3 2 2 1 1 1 1 3 3 3 3 2 3 2 3 3 2 3 2 1 1 1 1 1 2 2 1 1
9 8 8 7 6 6 6 6 6 6 5 6 5 6 5 4 4 2 2 1 1 0 1 3 3 3 2 3 3 3 3 3 3 2 2 2 2 2 2 3 2 2 1
8 7 7 8 8 7 7 7 7 7 6 6 6 6 6 6 5 4 3 3 2 1 2 2 2 2 3 3 3 3 3 3 3 3 2 2 2 2 2 2 1 1 1
7 8 8 8 8 8 8 8 8 7 7 7 6 5 5 5 4 4 4 4 3 3 3 3 3 3 3 3 3 2 2 2 3 3 3 2 2 2 3 3 2 1 1
7 8 8 8 7 8 8 8 8 7 7 7 6 5 5 5 4 4 4 3 3 3 3 3 3 3 3 3 3 2 3 2 3 3 3 2 2 2 3 3 3 3 2
7 7 7 7 7 7 7 6 7 8 7 6 6 6 5 5 4 4 4 3 3 3 3 3 3 3 3 3 3 2 2 3 2 2 2 2 2 2 2 3 3 3 3
7 6 6 6 6 6 6 6 6 6 6 6 6 5 5 5 4 4 3 3 3 3 3 4 3 3 4 4 3 3 2 3 2 2 3 3 3 3 3 2 3 3 3
4 5 5 5 5 6 6 6 6 5 5 5 5 5 4 4 4 4 4 3 3 3 4 4 4 4 4 4 5 5 4 4 4 4 3 4 3 3 3 3 3 4 4
2 3 3 4 6 6 6 6 5 6 5 4 5 4 4 4 4 4 3 3 3 3 4 4 4 4 4 5 5 5 5 4 5 4 4 4 3 3 3 3 3 3 4
2 3 3 4 5 5 6 6 6 6 5 5 5 5 5 5 4 3 3 3 4 4 4 4 5 5 5 5 5 5 4 4 4 5 5 5 5 6 5 4 4 4 3
2 3 2 2 2 3 4 5 5 5 5 5 5 6 5 5 4 4 4 4 4 4 3 4 4 4 5 5 5 5 5 5 5 4 5 5 6 6 6 5 5 5 4
1 2 2 2 2 2 3 4 5 5 5 6 6 5 5 5 5 5 4 4 4 3 3 3 4 5 5 6 7 6 5 5 5 5 5 5 5 6 7 7 7 7 6
1 2 2 2 2 3 3 4 4 4 5 5 4 4 4 4 5 5 4 4 4 4 4 4 4 5 6 6 6 7 5 5 5 5 5 5 4 5 5 6 6 6 6
1 2 2 2 2 2 2 3 2 3 4 3 3 3 4 4 4 3 4 4 4 4 4 4 4 5 6 5 5 5 5 5 5 5 5 5 4 3 4 4 4 4 5
1 1 1 2 2 3 3 4 3 3 3 2 3 3 4 4 3 4 4 3 3 4 4 3 4 4 4 3 4 4 3 3 4 4 4 4 5 5 4 4 4 4 4
1 1 2 2 2 2 3 4 3 3 2 3 3 2 3 3 4 4 3 2 3 3 2 2 2 2 3 2 2 3 3 3 3 3 3 4 5 4 4 4 4 5 5
1 2 3 3 2 2 4 4 3 2 3 2 1 2 2 3 3 2 2 2 1 1 1 1 1 1 2 2 2 3 3 4 4 3 3 4 4 4 4 5 5 6 5
2 2 3 2 1 2 4 3 2 2 1 1 1 1 1 1 1 2 1 2 2 2 0 1 2 2 2 2 2 3 4 4 4 4 4 4 4 4 4 4 5 5 3
2 2 3 2 1 1 3 3 2 1 1 2 1 1 1 1 1 2 2 2 2 2 1 0 2 3 3 3 3 2 2 3 3 3 3 3 3 2 2 3 3 3 2
2 2 3 2 0 0 0 2 2 2 2 2 1 1 1 1 1 1 1 2 2 2 1 1 1 2 2 2 2 2 2 1 2 2 2 2 1 1 1 1 1 2 2
1 2 3 2 1 0 0 0 1 3 3 2 1 1 1 1 1 1 1 1 1 2 3 2 2 2 2 4 3 2 2 2 2 1 1 1 1 1 2 2 2 2 1
2 2 1 1 1 0 1 1 1 3 4 2 2 1 1 1 2 2 2 3 1 1 1 3 3 2 3 3 2 3 3 3 1 0 1 1 2 2 2 2 2 2 2
Wind_Direction
198 180 177 171 164 166 168 172 167 160 143 131 133 128 148 124 107 151 163 162 160 155 156 147 133 130 130 131 126 117 111 105 105 90 48 12 5 305 256 235 217 212 207
184 179 174 174 178 183 183 178 179 171 165 164 154 145 136 133 128 114 119 151 159 160 162 149 142 139 132 127 127 123 119 106 115 123 109 8 356 340 264 226 217 226 218
192 189 183 184 184 189 191 190 187 182 176 154 125 106 90 76 72 67 72 102 150 156 159 150 146 146 147 153 151 144 142 154 161 127 143 145 226 325 347 269 224 213 218
193 191 188 188 192 197 191 186 180 179 174 155 147 145 151 159 178 159 146 107 138 149 159 155 152 147 146 154 166 153 156 156 173 145 140 156 155 156 334 342 295 230 228
191 193 193 194 194 191 186 184 175 177 172 164 166 162 165 174 146 127 119 114 105 145 164 164 159 151 153 156 156 151 167 171 174 173 159 152 136 166 194 278 307 308 246
190 190 187 179 181 176 175 176 173 181 177 173 172 174 175 170 152 155 166 175 158 143 169 168 165 166 167 170 174 174 180 188 186 181 174 170 169 179 188 227 258 273 277
182 180 181 183 184 179 179 175 178 186 184 181 185 188 186 179 181 186 187 185 189 211 224 190 167 169 181 176 168 171 188 191 188 194 198 199 207 185 179 191 233 270 294
182 185 186 189 190 186 184 181 188 191 186 186 192 193 188 187 194 193 191 195 204 212 207 194 189 184 177 173 163 177 196 185 198 214 203 202 220 200 197 188 182 249 303
181 187 187 187 187 184 185 188 185 189 191 190 188 187 189 188 192 195 195 201 209 209 193 192 194 190 175 168 167 187 202 191 201 213 208 213 226 210 211 203 196 199 256
182 184 187 191 189 187 187 185 188 195 195 189 193 197 196 194 190 186 194 197 204 205 191 193 196 190 185 180 180 198 205 188 207 205 205 220 227 218 214 211 210 210 218
183 184 190 194 187 180 180 182 191 193 191 191 191 194 194 190 187 191 201 206 207 199 200 203 198 200 201 193 189 209 204 204 220 218 211 228 219 216 221 216 210 213 211
183 179 183 184 179 178 179 181 189 193 196 190 186 193 191 181 189 203 209 207 213 217 212 204 202 207 207 200 199 208 207 208 220 228 223 237 229 225 228 220 223 222 219
149 155 167 184 186 184 183 181 186 192 192 176 174 180 187 189 206 216 214 209 215 222 214 204 208 214 212 206 208 205 209 215 223 226 224 234 223 234 235 228 235 237 231
143 150 176 197 193 189 187 185 193 191 185 176 177 189 198 201 208 219 216 221 222 223 223 217 217 217 215 212 212 209 212 216 224 227 228 230 224 229 232 233 237 237 236
149 155 175 196 193 191 190 187 190 184 181 181 189 204 204 201 199 205 213 219 225 230 229 223 226 223 219 220 212 213 216 218 227 235 238 238 232 227 227 232 231 226 230
179 165 164 168 186 198 194 183 184 181 177 186 197 201 193 192 200 207 211 214 222 226 222 230 231 232 234 220 207 205 218 221 226 240 248 248 246 242 236 235 230 219 223
242 194 185 180 195 200 184 184 187 173 175 189 196 196 192 201 209 209 206 214 220 221 228 237 235 239 240 226 215 209 218 229 235 240 246 253 256 247 250 249 244 238 232
247 219 201 177 172 173 166 156 147 155 165 179 192 197 201 207 206 192 215 224 220 220 229 236 238 241 248 233 221 216 222 236 244 243 240 244 261 260 248 249 253 255 251
223 205 189 170 150 148 151 132 127 132 149 183 205 204 200 201 197 202 215 220 216 221 226 228 231 236 254 235 210 196 212 231 250 255 249 243 250 261 236 233 250 266 273
80 102 94 100 118 123 127 126 134 142 181 207 212 195 185 195 208 216 216 217 220 227 225 231 231 231 255 264 218 195 208 229 246 257 258 251 250 255 229 226 239 256 267
55 86 103 115 142 139 127 127 140 186 216 213 196 178 185 193 200 203 198 184 190 186 212 264 288 272 268 282 246 213 219 230 239 248 258 263 254 247 236 226 238 248 254
82 95 103 94 100 135 134 136 174 224 204 163 154 158 163 198 183 161 164 156 143 130 117 330 325 331 329 312 281 242 233 232 233 249 260 266 264 249 242 237 247 248 233
121 111 117 114 86 128 148 162 212 205 136 132 151 162 134 111 125 151 161 152 140 145 142 3 315 320 332 332 326 297 250 241 238 254 267 282 285 254 247 252 247 228 223
132 126 124 124 109 334 157 193 203 158 138 147 165 158 141 97 78 101 144 154 163 160 171 200 272 301 321 325 327 326 314 289 265 271 287 294 315 304 291 308 273 243 231
153 146 149 159 200 260 199 225 181 144 140 141 155 149 140 124 93 70 49 163 173 179 190 215 215 240 283 284 266 268 292 287 267 279 309 326 343 331 318 309 289 269 246
140 127 127 140 165 77 354 315 196 152 146 149 159 162 150 129 118 90 36 33 59 55 180 193 193 231 248 280 275 270 273 287 305 96 295 297 287 280 281 283 290 287 275
Height
1514 1516 1518 1519 1521 1522 1523 1524 1525 1525 1526 1526 1527 1528 1529 1530 1531 1533 1534 1535 1536 1537 1538 1539 1540 1542 1543 1544 1545 1547 1548 1549 1550 1551 1551 1552 1552 1552 1553 1553 1553 1554 1555
1513 1515 1517 1519 1520 1521 1522 1523 1524 1525 1526 1527 1528 1529 1530 1531 1532 1534 1535 1536 1537 1538 1539 1540 1541 1542 1544 1545 1546 1547 1548 1549 1550 1551 1551 1552 1553 1552 1553 1553 1553 1553 1554
1510 1513 1515 1517 1518 1520 1521 1523 1524 1526 1527 1528 1529 1530 1531 1532 1533 1534 1536 1537 1538 1539 1540 1541 1542 1543 1544 1545 1546 1548 1549 1549 1551 1551 1552 1551 1551 1552 1552 1552 1553 1553 1554
1509 1511 1512 1514 1516 1518 1520 1522 1524 1525 1527 1528 1529 1530 1531 1532 1534 1535 1537 1538 1538 1539 1540 1541 1542 1543 1544 1545 1546 1547 1548 1549 1550 1550 1551 1552 1552 1552 1552 1552 1552 1553 1553
1505 1508 1510 1512 1514 1516 1518 1520 1522 1524 1526 1528 1529 1530 1531 1533 1534 1536 1537 1538 1539 1540 1540 1541 1542 1543 1544 1545 1546 1547 1548 1548 1549 1550 1550 1550 1551 1551 1551 1551 1551 1552 1552
1502 1505 1507 1510 1512 1514 1516 1519 1521 1523 1525 1527 1528 1530 1531 1532 1534 1535 1536 1537 1538 1539 1540 1541 1542 1543 1543 1544 1545 1546 1546 1547 1548 1548 1549 1549 1550 1550 1550 1550 1549 1549 1550
1499 1502 1505 1507 1509 1511 1514 1517 1519 1521 1523 1525 1527 1529 1530 1532 1533 1534 1535 1537 1538 1539 1540 1540 1541 1542 1543 1543 1544 1545 1545 1546 1546 1547 1547 1548 1548 1548 1548 1548 1548 1548 1548
1497 1499 1502 1504 1507 1509 1512 1514 1516 1519 1521 1523 1525 1527 1529 1530 1532 1533 1534 1535 1537 1538 1539 1539 1540 1541 1541 1542 1542 1543 1543 1544 1544 1545 1545 1546 1546 1547 1547 1547 1547 1546 1546
1495 1497 1500 1503 1505 1507 1509 1512 1515 1517 1519 1521 1523 1525 1527 1529 1530 1531 1533 1534 1535 1536 1537 1538 1538 1539 1539 1540 1540 1541 1541 1542 1542 1543 1543 1544 1544 1544 1545 1545 1545 1546 1544
1494 1496 1498 1501 1503 1505 1508 1511 1513 1515 1517 1520 1521 1523 1525 1526 1528 1530 1531 1531 1532 1534 1535 1535 1536 1537 1537 1538 1538 1539 1539 1539 1540 1540 1541 1541 1541 1542 1542 1543 1543 1543 1543
1491 1493 1496 1499 1501 1504 1506 1509 1511 1514 1516 1518 1520 1521 1523 1525 1526 1527 1528 1529 1530 1531 1532 1533 1534 1534 1535 1535 1536 1536 1537 1537 1537 1538 1538 1538 1539 1539 1540 1540 1540 1540 1540
1491 1493 1496 1498 1500 1502 1504 1506 1509 1511 1513 1516 1518 1519 1521 1523 1524 1525 1526 1527 1528 1529 1530 1531 1531 1532 1533 1533 1533 1534 1534 1535 1535 1535 1536 1536 1536 1537 1537 1537 1537 1537 1537
1490 1493 1495 1497 1499 1500 1502 1504 1507 1509 1511 1513 1515 1517 1519 1520 1521 1522 1524 1525 1525 1526 1527 1528 1528 1529 1530 1531 1531 1531 1532 1532 1532 1533 1533 1533 1533 1533 1534 1534 1534 1534 1534
1490 1492 1494 1496 1497 1499 1500 1503 1505 1507 1510 1511 1513 1514 1516 1517 1518 1520 1521 1522 1523 1523 1524 1525 1526 1526 1527 1527 1528 1528 1529 1529 1529 1530 1530 1530 1530 1530 1530 1530 1530 1530 1530
1489 1491 1493 1494 1496 1497 1499 1501 1503 1505 1507 1509 1510 1511 1512 1514 1515 1517 1518 1518 1520 1520 1521 1522 1522 1523 1524 1524 1524 1525 1525 1525 1526 1526 1526 1527 1527 1527 1527 1527 1526 1526 1526
1488 1490 1491 1493 1495 1496 1497 1499 1501 1503 1505 1506 1507 1509 1510 1511 1512 1513 1514 1515 1516 1517 1518 1519 1519 1519 1520 1520 1521 1522 1522 1522 1522 1522 1522 1523 1523 1523 1523 1523 1523 1522 1522
1488 1489 1490 1491 1493 1494 1496 1497 1499 1501 1502 1504 1504 1506 1507 1508 1509 1510 1510 1511 1512 1513 1514 1515 1515 1515 1516 1516 1517 1518 1518 1518 1518 1518 1518 1518 1518 1518 1518 1518 1518 1518 1517
1487 1488 1489 1490 1492 1493 1495 1496 1498 1499 1500 1501 1502 1503 1504 1505 1505 1505 1507 1507 1508 1509 1509 1510 1511 1511 1511 1512 1513 1513 1514 1514 1514 1514 1514 1514 1514 1514 1514 1514 1513 1513 1513
1486 1487 1488 1489 1490 1492 1493 1495 1496 1497 1498 1499 1500 1500 1501 1501 1501 1501 1502 1503 1504 1505 1505 1505 1506 1507 1507 1508 1508 1509 1509 1508 1508 1509 1509 1509 1509 1509 1509 1509 1509 1508 1508
1486 1487 1487 1489 1490 1491 1492 1494 1494 1495 1496 1497 1498 1498 1498 1498 1498 1499 1499 1500 1501 1501 1501 1501 1502 1503 1503 1503 1504 1505 1504 1504 1504 1504 1504 1505 1504 1504 1505 1505 1504 1503 1503
1485 1486 1486 1487 1489 1490 1491 1492 1493 1493 1494 1495 1495 1495 1495 1495 1496 1496 1496 1497 1497 1497 1498 1498 1499 1499 1499 1499 1499 1500 1500 1499 1499 1499 1499 1500 1500 1500 1500 1500 1500 1499 1499
1484 1485 1485 1486 1488 1489 1490 1490 1491 1492 1493 1493 1492 1492 1493 1493 1494 1493 1494 1494 1495 1495 1495 1495 1496 1496 1495 1495 1495 1496 1496 1496 1495 1495 1495 1495 1496 1495 1495 1495 1495 1495 1495
1483 1484 1485 1486 1487 1488 1489 1489 1490 1491 1491 1491 1491 1491 1491 1491 1491 1491 1491 1492 1492 1492 1492 1493 1492 1492 1492 1492 1492 1492 1491 1491 1491 1491 1491 1491 1491 1491 1491 1490 1491 1491 1490
1483 1484 1485 1485 1486 1487 1488 1488 1489 1489 1490 1490 1490 1489 1489 1489 1489 1489 1490 1490 1490 1490 1490 1490 1490 1489 1489 1489 1488 1488 1487 1487 1486 1486 1486 1487 1486 1486 1486 1486 1486 1485 1485
1482 1483 1484 1484 1485 1486 1487 1487 1488 1488 1488 1488 1488 1488 1488 1488 1488 1488 1488 1488 1488 1489 1488 1488 1487 1486 1485 1486 1486 1486 1485 1484 1483 1483 1482 1482 1482 1481 1481 1481 1481 1480 1480
1482 1482 1483 1484 1484 1485 1485 1486 1486 1486 1487 1487 1487 1487 1487 1487 1486 1486 1486 1487 1488 1487 1487 1486 1486 1484 1484 1484 1484 1483 1482 1481 1480 1479 1478 1478 1477 1477 1477 1476 1476 1476 1475